Terug naar catalogus

STARLINK-37645

ActiefCommunicatieVLEO
NORAD 69371·PAYLOAD·🇺🇸 United States

Gelanceerd Jun 4, 2026 vanaf Cape Canaveral Space Force Station

Loading…

Volgende Passages (komende 24 uur)

TLE

VersSource: CelesTrak SupGP

Epoch: Sep 15, 2026, 03:48 UTC

1 69371C 26123U   26258.15881944 -.00009896  00000+0 -29243-3 0  2587
2 69371  53.1581 166.8073 0001269  88.1382  78.1169 15.34389104    11

Volg STARLINK-37645 in realtime met AllMySat

Download on the App Store